GFSNIL_prec_precacc_225.txt.gz
Total_Precipitation_Accumulation
0.69 0.69 0.80 0.90 0.98 1.09 1.22 1.35 1.82 2.30 2.44 2.48 2.74 2.88 2.88 2.82 2.36 1.93 1.82 1.80 1.63 1.37
0.66 0.69 0.76 0.82 0.86 0.88 0.98 1.11 1.32 1.33 1.50 1.51 1.55 1.54 1.66 1.78 1.82 1.71 1.41 1.49 1.68 1.60
0.60 0.60 0.56 0.51 0.56 0.60 0.63 0.65 0.64 0.64 0.64 0.78 0.96 1.00 1.00 1.10 1.52 1.81 1.43 1.34 1.70 1.61
0.83 1.15 1.17 0.90 0.89 0.86 0.76 0.70 0.66 0.62 0.62 0.53 0.57 0.71 0.67 0.68 0.99 1.47 1.66 1.55 1.71 1.91
1.77 1.50 1.60 1.52 1.41 1.36 0.98 0.84 0.81 0.75 0.75 0.69 0.71 0.65 0.54 0.50 0.73 1.06 1.54 1.62 1.58 1.68
1.84 2.14 1.67 1.61 1.69 1.44 1.16 0.97 0.94 0.87 0.86 0.73 0.74 0.68 0.60 0.55 0.62 0.96 1.26 1.49 1.75 1.73
1.34 1.68 1.91 1.42 1.33 1.31 1.30 1.16 0.98 0.88 0.97 1.15 1.09 0.87 0.78 0.76 0.96 1.00 1.19 1.48 1.73 1.89
1.39 1.49 1.89 1.59 1.54 1.45 1.46 1.78 1.49 1.32 1.06 0.99 1.05 1.15 1.22 1.18 1.00 1.03 1.13 1.15 1.24 1.49
1.32 1.38 1.40 1.77 1.76 1.88 1.47 1.65 1.86 1.72 1.51 1.45 1.28 1.87 1.64 1.37 1.19 1.08 0.91 0.83 0.68 0.91
1.82 1.84 1.66 1.46 1.65 1.91 2.13 1.95 1.80 2.17 2.16 2.02 2.06 2.29 2.16 2.00 1.52 1.46 1.50 1.37 1.22 0.95
2.00 1.99 1.92 2.01 1.74 1.70 2.08 2.17 2.24 1.97 2.35 2.19 2.11 2.73 2.40 2.09 1.80 1.89 1.98 2.23 2.05 1.85
2.33 2.08 1.73 1.82 2.29 2.02 1.88 1.95 1.95 2.01 1.67 1.82 2.43 2.67 2.49 2.53 1.78 1.82 1.87 2.07 2.32 2.40
2.10 2.34 2.69 2.39 2.27 2.62 2.32 2.09 1.88 1.78 1.88 2.11 2.07 2.67 2.48 2.54 2.69 2.73 2.85 2.36 2.39 3.12
1.57 1.79 2.16 2.44 2.54 2.38 2.46 2.27 2.17 2.16 2.17 2.17 2.33 2.53 2.60 2.23 2.00 2.46 2.83 2.98 2.89 3.13

GFSNIL_prec_precacc_228.txt.gz
Total_Precipitation_Accumulation
0.69 0.69 0.80 0.90 0.98 1.09 1.22 1.35 1.82 2.30 2.44 2.48 2.74 2.88 2.88 2.82 2.37 1.94 1.82 1.80 1.64 1.37
0.66 0.69 0.76 0.82 0.86 0.88 0.98 1.11 1.32 1.33 1.50 1.51 1.55 1.54 1.66 1.78 1.82 1.71 1.41 1.49 1.68 1.60
0.60 0.60 0.56 0.51 0.56 0.60 0.63 0.65 0.64 0.64 0.64 0.78 0.96 1.00 1.00 1.10 1.52 1.81 1.43 1.34 1.70 1.62
0.83 1.15 1.17 0.90 0.89 0.86 0.76 0.70 0.66 0.62 0.62 0.53 0.57 0.71 0.67 0.68 0.99 1.47 1.66 1.55 1.71 1.91
1.77 1.50 1.60 1.52 1.41 1.36 0.98 0.84 0.81 0.75 0.75 0.69 0.71 0.65 0.54 0.50 0.73 1.06 1.54 1.62 1.58 1.68
1.84 2.14 1.67 1.61 1.69 1.44 1.16 0.97 0.94 0.87 0.86 0.73 0.74 0.68 0.60 0.55 0.62 0.96 1.26 1.49 1.76 1.73
1.34 1.68 1.91 1.42 1.33 1.31 1.30 1.16 0.98 0.88 0.97 1.15 1.09 0.87 0.78 0.76 0.96 1.00 1.19 1.48 1.73 1.89
1.39 1.49 1.89 1.59 1.54 1.45 1.46 1.78 1.49 1.32 1.06 0.99 1.05 1.15 1.22 1.19 1.00 1.03 1.13 1.15 1.24 1.50
1.32 1.39 1.40 1.77 1.76 1.88 1.48 1.65 1.86 1.72 1.51 1.45 1.28 1.88 1.64 1.37 1.19 1.08 0.92 0.83 0.68 0.93
1.82 1.84 1.66 1.46 1.65 1.91 2.14 1.95 1.80 2.17 2.16 2.02 2.06 2.29 2.17 2.00 1.52 1.46 1.50 1.38 1.22 0.96
2.00 1.99 1.92 2.01 1.74 1.70 2.08 2.17 2.24 1.97 2.35 2.19 2.11 2.74 2.40 2.10 1.80 1.89 1.98 2.25 2.07 1.86
2.33 2.08 1.73 1.82 2.29 2.02 1.88 1.95 1.95 2.01 1.67 1.82 2.43 2.67 2.49 2.53 1.78 1.82 1.87 2.07 2.33 2.40
2.10 2.34 2.70 2.39 2.27 2.62 2.32 2.09 1.88 1.78 1.88 2.11 2.07 2.68 2.48 2.54 2.69 2.73 2.85 2.37 2.39 3.12
1.57 1.79 2.17 2.45 2.55 2.39 2.46 2.27 2.18 2.16 2.17 2.17 2.33 2.53 2.60 2.23 2.00 2.46 2.83 2.98 2.89 3.13

GFSNIL_prec_precacc_231.txt.gz
Total_Precipitation_Accumulation
0.69 0.69 0.80 0.90 0.98 1.09 1.22 1.35 1.82 2.30 2.44 2.48 2.74 2.88 2.88 2.82 2.37 1.94 1.82 1.80 1.64 1.37
0.66 0.69 0.76 0.82 0.86 0.88 0.98 1.11 1.32 1.33 1.50 1.51 1.55 1.54 1.66 1.78 1.82 1.71 1.41 1.49 1.68 1.61
0.60 0.60 0.56 0.51 0.56 0.60 0.63 0.65 0.64 0.64 0.64 0.78 0.96 1.00 1.00 1.10 1.52 1.81 1.44 1.35 1.71 1.62
0.83 1.15 1.17 0.90 0.89 0.86 0.76 0.70 0.66 0.62 0.62 0.53 0.57 0.71 0.67 0.68 0.99 1.47 1.66 1.55 1.71 1.91
1.77 1.50 1.60 1.52 1.41 1.36 0.98 0.84 0.81 0.75 0.75 0.69 0.71 0.65 0.54 0.50 0.73 1.06 1.54 1.62 1.58 1.68
1.84 2.14 1.67 1.61 1.69 1.44 1.16 0.97 0.94 0.87 0.86 0.73 0.74 0.68 0.60 0.55 0.62 0.96 1.26 1.49 1.76 1.73
1.34 1.68 1.91 1.42 1.33 1.31 1.30 1.16 0.98 0.88 0.97 1.15 1.09 0.87 0.78 0.76 0.96 1.00 1.19 1.48 1.73 1.89
1.39 1.49 1.89 1.59 1.54 1.45 1.46 1.78 1.49 1.32 1.06 0.99 1.05 1.15 1.22 1.19 1.00 1.03 1.13 1.15 1.24 1.50
1.32 1.39 1.40 1.77 1.76 1.88 1.48 1.65 1.86 1.72 1.51 1.45 1.28 1.88 1.65 1.37 1.19 1.08 0.92 0.83 0.68 0.93
1.82 1.84 1.66 1.47 1.65 1.92 2.14 1.95 1.80 2.17 2.16 2.02 2.06 2.30 2.17 2.01 1.52 1.46 1.50 1.38 1.22 0.96
2.00 1.99 1.92 2.01 1.75 1.70 2.08 2.18 2.24 1.97 2.35 2.19 2.11 2.74 2.40 2.10 1.80 1.89 1.98 2.25 2.07 1.86
2.33 2.08 1.73 1.82 2.29 2.02 1.89 1.95 1.95 2.01 1.67 1.82 2.43 2.67 2.49 2.53 1.78 1.82 1.87 2.07 2.33 2.40
2.10 2.34 2.70 2.39 2.27 2.63 2.32 2.09 1.88 1.78 1.88 2.11 2.07 2.68 2.48 2.54 2.69 2.73 2.85 2.37 2.39 3.13
1.57 1.79 2.17 2.45 2.55 2.39 2.46 2.27 2.18 2.16 2.17 2.17 2.33 2.53 2.60 2.23 2.00 2.46 2.83 2.98 2.90 3.13

GFSNIL_prec_precacc_234.txt.gz
Total_Precipitation_Accumulation
0.69 0.69 0.80 0.90 0.98 1.09 1.22 1.35 1.82 2.30 2.44 2.48 2.74 2.88 2.88 2.82 2.37 1.94 1.82 1.80 1.64 1.37
0.66 0.69 0.76 0.82 0.86 0.88 0.98 1.11 1.32 1.33 1.50 1.51 1.55 1.54 1.66 1.78 1.82 1.71 1.41 1.49 1.68 1.61
0.60 0.60 0.56 0.51 0.56 0.60 0.63 0.65 0.64 0.64 0.64 0.78 0.96 1.00 1.00 1.10 1.52 1.81 1.44 1.35 1.71 1.62
0.83 1.15 1.17 0.90 0.89 0.86 0.76 0.70 0.66 0.62 0.62 0.53 0.57 0.71 0.67 0.68 0.99 1.47 1.66 1.55 1.72 1.92
1.77 1.50 1.60 1.52 1.41 1.36 0.98 0.84 0.81 0.75 0.75 0.69 0.71 0.65 0.54 0.50 0.73 1.06 1.54 1.62 1.58 1.68
1.84 2.14 1.67 1.61 1.69 1.44 1.16 0.97 0.94 0.87 0.86 0.73 0.74 0.68 0.60 0.55 0.62 0.96 1.26 1.49 1.76 1.73
1.34 1.68 1.91 1.42 1.33 1.31 1.30 1.16 0.98 0.88 0.97 1.15 1.09 0.87 0.78 0.76 0.96 1.00 1.19 1.49 1.73 1.89
1.39 1.49 1.89 1.59 1.54 1.45 1.46 1.78 1.49 1.32 1.06 1.00 1.05 1.15 1.23 1.19 1.00 1.03 1.13 1.15 1.24 1.50
1.32 1.39 1.40 1.77 1.76 1.89 1.49 1.66 1.87 1.72 1.52 1.46 1.29 1.88 1.65 1.37 1.19 1.08 0.92 0.83 0.68 0.93
1.82 1.84 1.66 1.47 1.66 1.92 2.15 1.97 1.82 2.19 2.19 2.04 2.07 2.31 2.18 2.02 1.53 1.46 1.50 1.38 1.22 0.96
2.00 1.99 1.92 2.01 1.75 1.71 2.09 2.19 2.26 1.99 2.39 2.21 2.12 2.76 2.42 2.11 1.80 1.89 1.98 2.25 2.07 1.86
2.33 2.08 1.73 1.83 2.29 2.02 1.89 1.96 1.97 2.05 1.71 1.84 2.45 2.71 2.52 2.55 1.79 1.82 1.87 2.07 2.33 2.40
2.10 2.34 2.70 2.39 2.27 2.63 2.32 2.09 1.88 1.81 1.92 2.14 2.10 2.71 2.50 2.56 2.69 2.74 2.85 2.37 2.39 3.13
1.57 1.79 2.17 2.45 2.55 2.39 2.47 2.27 2.18 2.17 2.18 2.18 2.34 2.54 2.62 2.24 2.01 2.46 2.83 2.98 2.90 3.13

GFSNIL_prec_precacc_237.txt.gz
Total_Precipitation_Accumulation
0.69 0.69 0.80 0.90 0.98 1.09 1.22 1.35 1.82 2.30 2.44 2.48 2.74 2.88 2.88 2.82 2.37 1.94 1.82 1.80 1.64 1.37
0.66 0.69 0.76 0.82 0.86 0.88 0.98 1.11 1.32 1.33 1.50 1.51 1.55 1.54 1.66 1.78 1.82 1.71 1.41 1.49 1.68 1.61
0.60 0.60 0.56 0.51 0.56 0.60 0.63 0.65 0.64 0.64 0.64 0.78 0.96 1.00 1.00 1.10 1.52 1.81 1.44 1.35 1.71 1.62
0.83 1.15 1.17 0.90 0.89 0.86 0.76 0.70 0.66 0.62 0.62 0.53 0.57 0.71 0.67 0.68 0.99 1.47 1.66 1.55 1.72 1.92
1.77 1.50 1.60 1.52 1.41 1.36 0.98 0.84 0.81 0.75 0.75 0.69 0.71 0.65 0.54 0.50 0.73 1.06 1.54 1.62 1.58 1.68
1.84 2.14 1.67 1.61 1.69 1.44 1.16 0.97 0.94 0.87 0.86 0.73 0.74 0.68 0.60 0.55 0.62 0.96 1.26 1.49 1.76 1.73
1.34 1.68 1.91 1.42 1.33 1.31 1.30 1.16 0.98 0.88 0.97 1.15 1.09 0.87 0.78 0.76 0.96 1.00 1.19 1.49 1.73 1.89
1.39 1.49 1.89 1.59 1.54 1.45 1.46 1.78 1.49 1.32 1.06 1.00 1.05 1.15 1.23 1.19 1.00 1.03 1.14 1.16 1.25 1.51
1.32 1.39 1.40 1.77 1.76 1.89 1.49 1.66 1.87 1.72 1.52 1.46 1.29 1.88 1.65 1.37 1.20 1.08 0.93 0.84 0.69 0.94
1.82 1.84 1.66 1.47 1.66 1.92 2.15 1.97 1.82 2.19 2.19 2.04 2.07 2.31 2.18 2.02 1.54 1.47 1.52 1.39 1.24 0.97
2.00 1.99 1.92 2.01 1.75 1.71 2.09 2.19 2.26 2.00 2.40 2.22 2.12 2.77 2.46 2.20 1.86 1.91 1.99 2.26 2.09 1.87
2.33 2.08 1.73 1.83 2.29 2.02 1.89 1.96 1.97 2.06 1.72 1.87 2.50 2.81 2.68 2.69 1.85 1.87 1.94 2.11 2.35 2.42
2.10 2.34 2.70 2.39 2.27 2.63 2.32 2.09 1.88 1.81 1.94 2.19 2.19 2.85 2.65 2.65 2.80 2.87 2.94 2.42 2.43 3.17
1.57 1.79 2.17 2.45 2.55 2.39 2.47 2.27 2.18 2.17 2.18 2.18 2.39 2.71 2.83 2.36 2.13 2.56 2.90 3.02 2.92 3.17

GFSNIL_prec_precacc_243.txt.gz
Total_Precipitation_Accumulation
0.69 0.69 0.80 0.90 0.98 1.09 1.22 1.35 1.82 2.30 2.44 2.48 2.74 2.88 2.88 2.82 2.37 1.94 1.82 1.80 1.64 1.37
0.66 0.70 0.76 0.82 0.86 0.88 0.98 1.11 1.32 1.33 1.50 1.51 1.55 1.54 1.66 1.78 1.82 1.71 1.41 1.49 1.68 1.61
0.60 0.60 0.56 0.51 0.56 0.60 0.63 0.65 0.64 0.64 0.64 0.78 0.96 1.00 1.00 1.10 1.52 1.81 1.44 1.35 1.71 1.62
0.83 1.15 1.18 0.91 0.92 0.88 0.76 0.70 0.66 0.62 0.62 0.53 0.57 0.71 0.67 0.68 0.99 1.47 1.66 1.55 1.72 1.92
1.77 1.51 1.66 1.63 1.54 1.49 1.13 0.87 0.81 0.75 0.75 0.69 0.71 0.65 0.54 0.50 0.73 1.06 1.54 1.62 1.58 1.68
1.84 2.15 1.68 1.64 1.77 1.52 1.17 0.97 0.94 0.87 0.86 0.73 0.74 0.68 0.60 0.55 0.62 0.96 1.26 1.49 1.76 1.73
1.35 1.69 1.92 1.42 1.33 1.31 1.30 1.16 0.98 0.88 0.97 1.15 1.09 0.88 0.78 0.76 0.97 1.01 1.20 1.49 1.74 1.89
1.39 1.49 1.89 1.59 1.54 1.45 1.46 1.78 1.49 1.32 1.06 1.00 1.05 1.15 1.23 1.20 1.01 1.04 1.15 1.17 1.25 1.51
1.32 1.39 1.40 1.77 1.76 1.89 1.49 1.66 1.87 1.72 1.52 1.46 1.29 1.88 1.65 1.38 1.21 1.10 0.94 0.85 0.70 0.95
1.82 1.84 1.66 1.47 1.66 1.92 2.15 1.97 1.82 2.19 2.19 2.04 2.07 2.31 2.18 2.04 1.58 1.52 1.55 1.41 1.25 0.99
2.00 1.99 1.92 2.01 1.75 1.71 2.09 2.19 2.26 2.00 2.40 2.22 2.12 2.78 2.46 2.23 1.98 2.00 2.03 2.28 2.10 1.89
2.33 2.08 1.73 1.83 2.29 2.02 1.89 1.96 1.97 2.06 1.72 1.87 2.50 2.81 2.72 2.80 2.01 2.00 1.99 2.17 2.41 2.49
2.10 2.34 2.70 2.39 2.27 2.63 2.32 2.09 1.88 1.81 1.94 2.19 2.19 2.86 2.66 2.71 2.89 2.94 3.02 2.54 2.54 3.31
1.57 1.79 2.17 2.45 2.55 2.39 2.47 2.27 2.18 2.17 2.18 2.18 2.39 2.71 2.84 2.39 2.15 2.59 2.99 3.16 3.05 3.29

GFSNIL_prec_precacc_246.txt.gz
Total_Precipitation_Accumulation
0.69 0.69 0.80 0.90 0.98 1.09 1.22 1.35 1.82 2.30 2.44 2.48 2.74 2.88 2.88 2.82 2.37 1.94 1.82 1.80 1.64 1.37
0.66 0.70 0.77 0.83 0.86 0.89 0.98 1.11 1.32 1.33 1.50 1.51 1.55 1.54 1.66 1.78 1.82 1.71 1.41 1.49 1.68 1.61
0.60 0.60 0.57 0.51 0.56 0.62 0.65 0.66 0.64 0.64 0.64 0.78 0.96 1.00 1.00 1.10 1.52 1.81 1.44 1.35 1.71 1.62
0.83 1.15 1.18 0.92 0.94 0.93 0.83 0.76 0.67 0.63 0.64 0.53 0.58 0.72 0.68 0.69 1.00 1.47 1.67 1.55 1.72 1.92
1.78 1.54 1.69 1.67 1.60 1.74 1.50 1.28 1.03 0.89 0.85 0.79 0.79 0.70 0.56 0.51 0.73 1.06 1.54 1.62 1.58 1.68
1.85 2.16 1.72 1.70 1.86 1.70 1.58 1.72 1.84 1.69 1.37 0.95 0.86 0.75 0.62 0.56 0.62 0.96 1.26 1.49 1.76 1.73
1.36 1.70 1.93 1.43 1.34 1.32 1.31 1.19 1.06 1.09 1.20 1.31 1.17 0.91 0.80 0.77 0.97 1.01 1.20 1.49 1.74 1.90
1.39 1.49 1.89 1.59 1.54 1.45 1.46 1.78 1.49 1.34 1.10 1.04 1.08 1.16 1.23 1.20 1.02 1.05 1.15 1.17 1.25 1.51
1.33 1.39 1.40 1.77 1.76 1.89 1.49 1.66 1.87 1.72 1.52 1.46 1.29 1.88 1.65 1.39 1.21 1.10 0.94 0.86 0.70 0.95
1.82 1.84 1.66 1.47 1.66 1.92 2.15 1.97 1.82 2.19 2.19 2.04 2.07 2.31 2.19 2.05 1.58 1.52 1.55 1.41 1.26 0.99
2.00 1.99 1.92 2.01 1.75 1.71 2.09 2.19 2.26 2.00 2.40 2.22 2.12 2.78 2.47 2.23 1.98 2.00 2.03 2.28 2.10 1.90
2.33 2.08 1.73 1.83 2.29 2.02 1.89 1.96 1.97 2.06 1.72 1.87 2.50 2.81 2.73 2.81 2.02 2.00 1.99 2.17 2.41 2.49
2.10 2.34 2.70 2.39 2.27 2.63 2.32 2.09 1.88 1.81 1.94 2.19 2.19 2.86 2.66 2.72 2.89 2.94 3.02 2.54 2.54 3.32
1.57 1.79 2.17 2.45 2.55 2.39 2.47 2.27 2.18 2.17 2.18 2.18 2.39 2.71 2.85 2.39 2.15 2.59 2.99 3.16 3.06 3.29

GFSNIL_prec_precacc_249.txt.gz
Total_Precipitation_Accumulation
0.69 0.69 0.80 0.90 0.98 1.09 1.22 1.35 1.83 2.30 2.44 2.48 2.74 2.88 2.88 2.82 2.37 1.94 1.82 1.80 1.64 1.37
0.67 0.70 0.77 0.83 0.86 0.89 0.98 1.11 1.34 1.35 1.51 1.51 1.55 1.54 1.66 1.78 1.82 1.71 1.41 1.49 1.68 1.61
0.63 0.63 0.57 0.51 0.56 0.62 0.67 0.72 0.70 0.68 0.65 0.79 0.96 1.00 1.00 1.10 1.52 1.81 1.44 1.35 1.71 1.62
0.85 1.20 1.23 0.97 0.97 0.94 0.86 0.78 0.71 0.68 0.69 0.58 0.61 0.75 0.71 0.72 1.02 1.48 1.67 1.56 1.72 1.92
1.78 1.56 1.74 1.76 1.72 1.87 1.64 1.38 1.09 0.97 0.97 0.92 0.91 0.83 0.70 0.62 0.86 1.17 1.62 1.69 1.62 1.70
1.85 2.17 1.75 1.77 1.98 1.85 1.70 1.92 2.24 2.36 1.98 1.38 1.12 1.02 0.90 0.72 0.69 1.01 1.30 1.53 1.78 1.76
1.36 1.70 1.94 1.45 1.37 1.36 1.35 1.22 1.09 1.16 1.35 1.57 1.49 1.24 1.18 1.18 1.31 1.18 1.25 1.53 1.77 1.92
1.39 1.49 1.89 1.59 1.54 1.45 1.46 1.79 1.50 1.35 1.13 1.09 1.18 1.30 1.38 1.35 1.18 1.20 1.27 1.26 1.30 1.54
1.33 1.39 1.40 1.77 1.76 1.89 1.49 1.66 1.87 1.72 1.52 1.46 1.30 1.92 1.72 1.48 1.29 1.16 0.99 0.88 0.72 0.96
1.84 1.86 1.66 1.47 1.66 1.92 2.15 1.97 1.82 2.19 2.19 2.04 2.07 2.31 2.19 2.05 1.58 1.52 1.55 1.42 1.26 0.99
2.00 2.00 1.93 2.02 1.75 1.71 2.09 2.19 2.26 2.00 2.40 2.22 2.12 2.78 2.47 2.24 1.98 2.00 2.03 2.28 2.10 1.90
2.33 2.08 1.73 1.83 2.29 2.03 1.89 1.96 1.97 2.06 1.72 1.87 2.50 2.81 2.73 2.81 2.02 2.00 1.99 2.17 2.41 2.49
2.10 2.34 2.70 2.39 2.27 2.63 2.32 2.09 1.88 1.81 1.94 2.19 2.19 2.86 2.66 2.72 2.89 2.94 3.02 2.54 2.54 3.32
1.57 1.79 2.17 2.45 2.55 2.39 2.47 2.27 2.18 2.17 2.18 2.18 2.39 2.71 2.85 2.39 2.15 2.59 2.99 3.16 3.06 3.30

GFSNIL_prec_precacc_252.txt.gz
Total_Precipitation_Accumulation
0.72 0.71 0.81 0.91 0.98 1.09 1.22 1.36 1.83 2.31 2.44 2.48 2.74 2.88 2.88 2.82 2.37 1.94 1.82 1.80 1.64 1.37
0.72 0.75 0.81 0.84 0.87 0.90 0.98 1.11 1.34 1.35 1.52 1.52 1.55 1.54 1.66 1.78 1.82 1.71 1.41 1.49 1.68 1.61
0.64 0.67 0.64 0.57 0.61 0.66 0.69 0.73 0.71 0.69 0.65 0.79 0.96 1.01 1.00 1.10 1.52 1.81 1.44 1.35 1.71 1.62
0.85 1.20 1.26 1.03 1.03 0.99 0.88 0.81 0.73 0.69 0.70 0.62 0.69 0.82 0.72 0.72 1.02 1.48 1.68 1.56 1.72 1.92
1.78 1.56 1.76 1.79 1.77 1.90 1.67 1.42 1.17 1.07 1.05 0.98 0.99 0.93 0.73 0.63 0.87 1.18 1.65 1.73 1.65 1.73
1.85 2.18 1.77 1.79 2.00 1.88 1.72 1.93 2.26 2.41 2.05 1.51 1.31 1.15 0.97 0.76 0.73 1.04 1.32 1.55 1.80 1.77
1.36 1.70 1.94 1.46 1.39 1.38 1.37 1.24 1.11 1.17 1.37 1.62 1.67 1.54 1.50 1.44 1.52 1.37 1.41 1.63 1.84 1.97
1.40 1.49 1.89 1.59 1.54 1.45 1.47 1.79 1.51 1.37 1.14 1.11 1.21 1.36 1.49 1.57 1.56 1.65 1.66 1.54 1.49 1.67
1.33 1.40 1.42 1.79 1.77 1.89 1.49 1.66 1.87 1.72 1.52 1.46 1.31 1.93 1.74 1.51 1.37 1.30 1.18 1.07 0.87 1.05
1.85 1.88 1.69 1.51 1.70 1.94 2.15 1.97 1.82 2.19 2.19 2.04 2.07 2.31 2.19 2.05 1.59 1.53 1.57 1.46 1.33 1.07
2.00 2.00 1.95 2.04 1.79 1.75 2.12 2.20 2.26 2.00 2.40 2.22 2.12 2.78 2.47 2.24 1.98 2.00 2.03 2.28 2.10 1.90
2.33 2.08 1.73 1.83 2.31 2.05 1.92 1.99 1.99 2.07 1.72 1.87 2.50 2.81 2.73 2.81 2.02 2.00 1.99 2.17 2.41 2.49
2.10 2.34 2.70 2.39 2.27 2.63 2.33 2.10 1.90 1.83 1.95 2.19 2.19 2.86 2.66 2.72 2.89 2.94 3.02 2.54 2.54 3.32
1.57 1.79 2.17 2.45 2.55 2.39 2.47 2.27 2.19 2.17 2.18 2.19 2.39 2.71 2.85 2.39 2.15 2.59 2.99 3.16 3.06 3.30

GFSNIL_prec_precacc_258.txt.gz
Total_Precipitation_Accumulation
0.72 0.72 0.84 0.94 1.01 1.11 1.24 1.37 1.84 2.31 2.46 2.52 2.81 2.94 2.96 2.89 2.39 1.95 1.82 1.80 1.64 1.37
0.72 0.75 0.82 0.87 0.89 0.91 1.00 1.13 1.35 1.37 1.54 1.55 1.61 1.65 1.76 1.87 1.90 1.78 1.44 1.50 1.69 1.61
0.64 0.67 0.64 0.58 0.62 0.66 0.70 0.75 0.74 0.72 0.71 0.89 1.06 1.11 1.12 1.19 1.61 1.90 1.50 1.39 1.73 1.63
0.85 1.20 1.26 1.03 1.04 1.00 0.89 0.82 0.76 0.74 0.76 0.70 0.80 1.01 0.97 0.94 1.23 1.69 1.82 1.65 1.78 1.95
1.78 1.56 1.76 1.79 1.77 1.91 1.69 1.44 1.19 1.11 1.13 1.11 1.15 1.10 0.95 0.91 1.16 1.54 2.07 2.15 1.98 1.89
1.85 2.18 1.77 1.79 2.01 1.88 1.72 1.96 2.29 2.42 2.07 1.55 1.42 1.46 1.40 1.19 1.11 1.45 1.81 2.11 2.34 2.25
1.37 1.71 1.94 1.46 1.39 1.38 1.37 1.25 1.13 1.20 1.40 1.65 1.72 1.64 1.64 1.70 1.94 1.85 1.84 2.17 2.53 2.69
1.40 1.49 1.89 1.59 1.54 1.46 1.47 1.80 1.51 1.38 1.15 1.13 1.24 1.42 1.60 1.70 1.68 1.91 2.20 2.26 2.26 2.37
1.33 1.40 1.42 1.79 1.78 1.90 1.49 1.66 1.87 1.73 1.53 1.47 1.32 1.95 1.78 1.57 1.45 1.41 1.35 1.27 1.17 1.62
1.85 1.88 1.69 1.51 1.70 1.96 2.17 1.98 1.83 2.20 2.20 2.05 2.08 2.33 2.21 2.07 1.61 1.57 1.63 1.53 1.43 1.21
2.00 2.00 1.95 2.04 1.79 1.75 2.13 2.21 2.27 2.00 2.41 2.23 2.13 2.80 2.50 2.26 2.00 2.01 2.05 2.30 2.12 1.94
2.33 2.08 1.73 1.83 2.31 2.05 1.92 1.99 1.99 2.07 1.72 1.87 2.50 2.82 2.75 2.84 2.03 2.01 2.00 2.18 2.42 2.50
2.10 2.34 2.70 2.39 2.27 2.63 2.33 2.10 1.90 1.83 1.96 2.20 2.19 2.86 2.66 2.73 2.91 2.95 3.03 2.54 2.55 3.33
1.57 1.79 2.17 2.45 2.55 2.39 2.47 2.27 2.19 2.17 2.19 2.19 2.39 2.72 2.85 2.40 2.16 2.60 2.99 3.16 3.06 3.30